CAPE
0 0 0 1 0 0 0 1 0 0 1 1 0 0 0 0 0 0 0 0 0 0 0 0 0 0 0 0 0 0 0 0 0 0 0 0 0 0 0 0 0 0 0 0 0 0 0
0 0 0 0 0 0 0 1 0 0 0 0 0 0 0 0 0 0 0 0 0 0 0 0 0 0 0 0 0 0 0 0 0 0 0 0 0 0 0 0 0 0 0 0 0 0 0
0 0 0 0 0 0 0 1 0 1 0 0 0 0 0 0 0 0 0 0 0 0 0 0 0 0 0 0 0 0 0 0 0 0 0 0 0 0 0 0 0 0 0 0 0 0 0
0 0 0 0 0 0 0 1 1 1 0 0 0 0 0 0 0 0 0 0 0 0 0 0 0 0 0 0 0 0 0 0 0 0 0 0 0 0 0 0 0 0 0 0 0 0 0
0 0 0 0 0 0 0 0 1 0 0 0 0 0 0 0 0 0 0 0 0 0 0 0 0 0 0 0 0 0 0 0 0 0 0 0 0 0 0 0 0 0 0 0 0 0 0
0 0 0 0 0 0 0 0 0 0 0 0 0 0 0 0 0 0 0 0 0 0 0 0 0 0 0 0 0 0 0 0 0 0 0 0 0 0 0 0 0 0 0 0 0 0 0
0 0 0 0 0 0 0 0 0 0 0 0 0 0 0 0 0 0 0 0 0 0 0 0 0 0 0 0 0 0 0 0 0 0 0 0 0 0 0 0 0 0 0 0 0 0 0
0 0 0 0 0 0 0 0 0 0 0 0 0 0 0 0 0 0 0 0 0 0 0 0 0 0 0 0 0 0 0 0 0 0 0 0 0 0 0 0 0 0 0 0 0 0 0
0 0 0 0 0 0 0 0 0 0 0 0 0 0 0 0 0 0 0 0 0 0 0 0 0 0 0 0 0 0 0 0 0 0 0 0 0 0 0 0 0 0 0 0 0 0 0
0 0 0 0 0 0 0 0 0 0 0 0 0 0 0 0 0 0 0 0 0 0 0 0 0 0 0 0 0 0 0 0 0 0 0 0 0 0 0 0 0 0 0 0 0 0 0
0 0 0 0 0 0 0 0 0 0 0 0 0 0 0 0 0 0 0 0 0 0 0 0 0 0 0 0 0 0 0 0 0 0 0 0 0 0 0 0 0 0 0 0 0 0 0
0 0 0 0 0 0 0 0 0 0 0 0 0 0 0 0 0 0 0 0 0 0 0 0 0 0 0 0 0 0 0 0 0 0 0 0 0 0 0 0 0 0 0 0 0 0 0
0 0 0 0 0 0 0 0 0 0 0 0 0 0 0 0 0 0 0 0 0 0 0 0 0 0 0 0 0 0 0 0 0 0 0 0 0 0 0 0 0 0 0 0 0 0 0
0 0 0 0 0 0 0 0 0 0 0 0 0 0 0 0 0 0 0 0 0 0 0 0 0 0 0 0 0 0 0 0 0 0 0 0 0 0 0 0 0 0 0 0 0 0 0
0 0 0 0 0 0 0 0 0 0 0 0 0 0 0 0 0 0 0 0 0 0 0 0 0 0 0 0 0 0 0 0 0 0 0 0 0 0 0 0 0 0 0 0 0 0 0
2 0 0 0 0 0 0 0 0 0 0 0 0 0 0 0 0 0 0 0 0 0 0 0 0 0 0 0 0 0 0 0 0 0 0 0 0 0 0 0 0 0 0 0 0 0 0
2 2 0 0 0 0 0 0 0 0 0 0 0 0 0 0 0 0 0 0 0 0 0 0 0 0 0 0 0 0 0 0 0 0 0 0 0 0 0 0 0 0 0 0 0 0 0
1 1 2 0 0 0 0 0 0 0 0 0 0 0 0 0 0 0 0 0 0 0 0 0 0 0 0 0 0 0 0 0 0 0 0 0 0 0 0 0 0 0 0 0 0 0 0
2 1 2 2 2 1 0 0 0 0 0 0 0 0 0 0 0 0 0 0 0 0 0 0 0 0 0 0 0 0 0 0 0 0 0 0 0 0 0 0 0 0 0 0 0 0 0
0 1 1 2 1 1 0 0 0 0 0 0 0 0 0 0 0 0 0 0 0 0 0 0 0 0 0 0 0 0 0 0 0 0 0 0 0 0 0 0 0 0 0 0 0 0 0
0 0 1 1 3 3 0 0 0 0 0 0 0 0 0 0 0 0 0 0 0 0 0 0 0 0 0 0 0 0 0 0 0 0 0 0 0 0 0 0 0 0 0 0 0 0 0
0 0 2 1 4 4 0 0 0 0 0 0 0 0 0 0 0 0 0 0 0 0 0 0 0 0 0 0 0 0 0 0 0 0 0 0 0 0 0 0 0 0 0 0 0 0 0
0 0 0 1 5 6 4 0 0 0 0 0 0 0 0 0 0 0 0 0 0 0 0 0 0 0 0 0 0 0 0 0 0 0 0 0 0 0 0 0 0 0 0 0 0 0 0
0 0 0 1 5 6 4 0 0 0 0 0 0 0 0 0 0 0 0 0 0 0 0 0 0 0 0 0 0 0 0 0 0 0 0 0 0 0 0 0 0 0 0 0 0 0 0
0 0 0 3 5 6 5 5 1 0 0 0 0 0 0 0 0 0 0 0 0 0 0 0 0 0 0 0 0 0 0 0 0 0 0 0 0 0 0 0 0 0 0 0 0 0 0
0 0 0 10 4 6 5 4 4 0 0 0 0 0 0 0 0 0 0 0 0 0 0 0 0 0 0 0 0 0 0 0 0 0 0 0 0 0 0 0 0 0 0 0 0 0 0
0 0 0 4 5 3 5 5 3 1 0 0 0 0 0 0 0 0 0 0 0 0 0 0 0 0 0 0 0 0 0 0 0 0 0 0 0 0 0 0 0 0 0 0 0 0 0
0 0 1 14 4 4 2 3 3 6 0 0 0 0 0 0 0 0 0 0 0 0 0 0 0 0 0 0 0 0 0 0 0 0 0 0 0 0 0 0 0 0 0 0 0 0 0
0 3 10 3 3 3 2 0 6 4 0 0 0 0 0 0 0 0 0 0 0 0 0 0 0 0 0 0 0 0 0 0 0 0 0 0 0 0 0 0 0 0 0 0 0 0 0
CIN
0 0 0 0 0 0 0 0 0 0 0 0 0 0 0 0 0 0 0 0 0 0 0 0 0 0 0 0 0 0 0 0 0 0 0 0 0 0 0 0 0 0 0 0 0 0 0
0 0 0 0 0 0 0 0 0 0 0 0 0 0 0 0 0 0 0 0 0 0 0 0 0 0 0 0 0 0 0 0 0 0 0 0 0 0 0 0 0 0 0 0 0 0 0
0 0 0 0 0 0 0 0 0 0 0 0 0 0 0 0 0 0 0 0 0 0 0 0 0 0 0 0 0 0 0 0 0 0 0 0 0 0 0 0 0 0 0 0 0 0 0
0 0 0 0 0 0 0 0 0 0 0 0 0 0 0 0 0 0 0 0 0 0 0 0 0 0 0 0 0 0 0 0 0 0 0 0 0 0 0 0 0 0 0 0 0 0 0
0 0 0 0 0 0 0 0 0 0 0 0 0 0 0 0 0 0 0 0 0 0 0 0 0 0 0 0 0 0 0 0 0 0 0 0 0 0 0 0 0 0 0 0 0 0 0
0 0 0 0 0 0 0 0 0 0 0 0 0 0 0 0 0 0 0 0 0 0 0 0 0 0 0 0 0 0 0 0 0 0 0 0 0 0 0 0 0 0 0 0 0 0 0
0 0 0 0 0 0 0 0 0 0 0 0 0 0 0 0 0 0 0 0 0 0 0 0 0 0 0 0 0 0 0 0 0 0 0 0 0 0 0 0 0 0 0 0 0 0 0
0 0 0 0 0 0 0 0 0 0 0 0 0 0 0 0 0 0 0 0 0 0 0 0 0 0 0 0 0 0 0 0 0 0 0 0 0 0 0 0 0 0 0 0 0 0 0
0 0 0 0 0 0 0 0 0 0 0 0 0 0 0 0 0 0 0 0 0 0 0 0 0 0 0 0 0 0 0 0 0 0 0 0 0 0 0 0 0 0 0 0 0 0 0
0 0 0 0 0 0 0 0 0 0 0 0 0 0 0 0 0 0 0 0 0 0 0 0 0 0 0 0 0 0 0 0 0 0 0 0 0 0 0 0 0 0 0 0 0 0 0
0 0 0 0 0 0 0 0 0 0 0 0 0 0 0 0 0 0 0 0 0 0 0 0 0 0 0 0 0 0 0 0 0 0 0 0 0 0 0 0 0 0 0 0 0 0 0
0 0 0 0 0 0 0 0 0 0 0 0 0 0 0 0 0 0 0 0 0 0 0 0 0 0 0 0 0 0 0 0 0 0 0 0 0 0 0 0 0 0 0 0 0 0 0
0 0 0 0 0 0 0 0 0 0 0 0 0 0 0 0 0 0 0 0 0 0 0 0 0 0 0 0 0 0 0 0 0 0 0 0 0 0 0 0 0 0 0 0 0 0 0
0 0 0 0 0 0 0 0 0 0 0 0 0 0 0 0 0 0 0 0 0 0 0 0 0 0 0 0 0 0 0 0 0 0 0 0 0 0 0 0 0 0 0 0 0 0 0
0 0 0 0 0 0 0 0 0 0 0 0 0 0 0 0 0 0 0 0 0 0 0 0 0 0 0 0 0 0 0 0 0 0 0 0 0 0 0 0 0 0 0 0 0 0 0
0 0 0 0 0 0 0 0 0 0 0 0 0 0 0 0 0 0 0 0 0 0 0 0 0 0 0 0 0 0 0 0 0 0 0 0 0 0 0 0 0 0 0 0 0 0 0
0 0 0 0 0 0 0 0 0 0 0 0 0 0 0 0 0 0 0 0 0 0 0 0 0 0 0 0 0 0 0 0 0 0 0 0 0 0 0 0 0 0 0 0 0 0 0
0 0 0 0 0 0 0 0 0 0 0 0 0 0 0 0 0 0 0 0 0 0 0 0 0 0 0 0 0 0 0 0 0 0 0 0 0 0 0 0 0 0 0 0 0 0 0
-18 0 0 0 0 0 0 0 0 0 0 0 0 0 0 0 0 0 0 0 0 0 0 0 0 0 0 0 0 0 0 0 0 0 0 0 0 0 0 0 0 0 0 0 0 0 0
0 0 0 0 0 0 0 0 0 0 0 0 0 0 0 0 0 0 0 0 0 0 0 0 0 0 0 0 0 0 0 0 0 0 0 0 0 0 0 0 0 0 0 0 0 0 0
0 0 -36 0 0 0 0 0 0 0 0 0 0 0 0 0 0 0 0 0 0 0 0 0 0 0 0 0 0 0 0 0 0 0 0 0 0 0 0 0 0 0 0 0 0 0 0
0 0 0 0 0 0 0 0 0 0 0 0 0 0 0 0 0 0 0 0 0 0 0 0 0 0 0 0 0 0 0 0 0 0 0 0 0 0 0 0 0 0 0 0 0 0 0
0 0 0 0 0 0 0 0 0 0 0 0 0 0 0 0 0 0 0 0 0 0 0 0 0 0 0 0 0 0 0 0 0 0 0 0 0 0 0 0 0 0 0 0 0 0 0
0 0 0 -2 0 0 0 0 0 0 0 0 0 0 0 0 0 0 0 0 0 0 0 0 0 0 0 0 0 0 0 0 0 0 0 0 0 0 0 0 0 0 0 0 0 0 0
0 0 0 0 0 0 0 0 0 0 0 0 0 0 0 0 0 0 0 0 0 0 0 0 0 0 0 0 0 0 0 0 0 0 0 0 0 0 0 0 0 0 0 0 0 0 0
0 0 0 0 0 0 0 0 0 0 0 0 0 0 0 0 0 0 0 0 0 0 0 0 0 0 0 0 0 0 0 0 0 0 0 0 0 0 0 0 0 0 0 0 0 0 0
0 0 0 0 0 0 0 0 0 0 0 0 0 0 0 0 0 0 0 0 0 0 0 0 0 0 0 0 0 0 0 0 0 0 0 0 0 0 0 0 0 0 0 0 0 0 0
0 0 -1 0 0 0 0 0 0 0 0 0 0 0 0 0 0 0 0 0 0 0 0 0 0 0 0 0 0 0 0 0 0 0 0 0 0 0 0 0 0 0 0 0 0 0 0
0 -4 0 0 0 0 0 0 -1 0 0 0 0 0 0 0 0 0 0 0 0 0 0 0 0 0 0 0 0 0 0 0 0 0 0 0 0 0 0 0 0 0 0 0 0 0 0
Wind_Speed
14 14 15 16 17 18 19 20 20 21 21 21 22 22 22 22 23 23 24 22 22 20 18 18 17 17 16 16 16 4 19 21 17 15 17 15 15 14 13 14 14 14 13 13 13 14 13
14 15 16 17 18 19 20 21 21 21 22 22 22 23 23 23 23 21 20 24 23 21 19 19 18 17 16 16 18 20 21 19 21 18 17 16 14 14 14 14 14 13 13 14 14 13 11
16 17 17 18 19 20 21 22 22 22 23 23 23 23 23 23 24 23 21 20 23 21 20 19 19 16 17 16 18 20 19 18 19 17 15 15 14 13 13 13 13 13 13 12 15 11 10
17 17 18 19 20 21 22 22 22 23 23 23 23 24 24 24 24 25 25 22 23 21 20 20 19 17 17 17 18 20 19 18 19 18 15 15 15 14 14 13 15 14 14 13 15 11 12
17 17 18 19 20 21 22 22 23 23 23 23 24 24 24 24 24 25 25 23 20 20 20 20 18 17 17 17 17 19 19 17 16 17 17 15 15 15 15 15 15 18 13 14 14 13 12
17 18 18 19 20 21 22 23 23 23 23 24 24 24 24 25 25 26 25 20 21 20 20 19 18 17 18 19 20 19 18 17 16 15 15 16 16 15 15 14 11 12 12 14 14 15 15
17 18 19 19 20 21 22 23 23 23 24 24 25 25 25 26 26 26 22 20 23 22 23 20 21 19 19 19 19 20 19 16 16 16 15 17 15 13 14 13 14 14 13 13 15 16 18
18 19 19 19 20 21 22 23 23 23 24 25 25 26 26 27 25 25 21 22 21 19 22 20 19 18 17 18 17 20 19 16 16 15 15 16 15 14 13 13 14 15 16 17 19 19 20
8 16 18 20 20 21 22 23 23 24 24 25 26 26 27 27 21 22 23 21 20 21 20 20 18 17 17 17 16 19 19 17 16 17 17 16 15 14 14 14 16 17 17 20 22 22 22
6 9 14 18 20 21 22 22 23 24 24 25 26 26 27 26 18 21 21 22 20 20 21 18 17 17 17 16 17 18 19 18 18 18 18 19 17 16 17 19 18 24 19 21 23 26 30
7 10 12 14 18 21 22 23 23 24 25 25 25 26 26 23 18 20 19 20 18 20 23 18 18 17 17 17 16 19 19 19 19 20 20 21 19 19 20 21 18 24 21 23 26 29 32
8 10 12 13 16 20 22 24 24 24 25 25 25 25 23 20 19 18 19 19 19 22 21 18 18 18 18 18 19 20 20 20 19 20 20 19 18 19 19 18 18 18 23 27 28 29 37
9 12 13 14 15 16 20 23 24 25 25 25 25 23 20 19 19 19 19 20 23 18 20 19 20 21 21 21 21 21 21 22 21 25 25 23 20 19 18 21 20 20 25 35 37 35 37
12 12 12 12 14 17 18 21 23 25 25 25 23 19 20 19 19 19 19 22 22 19 19 20 21 21 22 22 21 22 21 21 20 21 26 29 31 20 20 20 23 23 23 29 41 40 39
17 15 13 11 12 14 18 20 22 23 25 25 19 19 19 21 20 18 20 22 21 20 20 20 22 25 24 22 23 26 24 24 22 20 25 28 30 20 21 21 21 25 28 26 34 36 40
21 18 14 14 14 15 17 20 22 24 24 23 19 19 20 21 19 18 19 22 20 19 20 21 24 23 28 27 27 27 27 22 24 22 22 26 34 24 23 22 24 25 23 33 30 40 42
26 17 17 16 15 15 17 19 21 23 24 21 21 22 19 21 18 19 23 22 21 19 19 21 24 26 25 29 27 29 29 26 24 23 22 24 29 31 27 29 31 30 31 29 29 30 39
25 20 14 16 15 15 16 17 20 22 22 21 22 26 21 18 21 21 22 21 20 21 20 23 23 24 26 25 28 27 28 25 22 22 27 25 29 35 34 30 28 28 29 26 31 34 32
30 24 18 16 14 13 15 17 19 20 20 20 24 25 20 18 27 24 23 23 23 23 23 22 23 22 23 25 28 25 26 25 23 24 26 24 30 41 38 33 28 28 27 26 27 31 37
30 29 26 20 16 15 15 16 18 20 18 19 23 28 23 19 20 23 23 25 26 22 23 21 23 22 24 26 24 28 27 25 23 23 24 25 30 34 40 38 32 33 30 28 30 38 41
31 31 27 24 21 19 17 16 17 17 16 17 23 26 22 26 23 23 23 24 25 26 21 20 24 22 23 28 28 28 26 26 25 25 27 27 33 31 32 32 33 34 35 31 33 34 40
30 30 28 23 21 19 18 15 15 16 13 20 25 25 23 25 24 23 23 26 25 24 22 25 25 24 22 27 28 30 26 26 29 27 26 26 33 32 36 34 35 39 33 31 33 35 36
31 31 30 21 19 18 14 14 12 11 12 20 20 20 23 24 24 24 27 27 25 21 23 23 23 24 25 24 22 22 24 26 26 26 25 27 29 34 39 35 39 44 33 30 30 29 33
32 31 32 20 18 16 14 13 12 9 13 16 17 18 22 28 24 26 27 27 27 25 27 24 22 24 20 15 18 22 24 24 24 25 24 27 29 31 39 39 47 32 27 28 31 32 31
32 31 32 20 18 17 15 14 13 12 12 17 15 17 21 29 26 27 26 26 23 24 25 24 22 19 13 18 26 29 29 29 28 27 25 22 25 33 38 38 39 35 30 30 33 37 31
33 32 31 22 19 18 17 16 14 15 13 16 18 18 21 26 28 22 23 21 23 24 24 21 18 17 19 22 25 29 32 31 29 30 23 21 22 27 32 41 44 31 26 25 30 44 26
35 33 33 23 18 17 16 16 14 13 12 14 17 18 19 23 20 19 22 21 18 19 21 20 19 20 21 22 26 28 31 27 32 32 31 29 29 32 33 37 34 26 26 24 41 42 32
36 36 29 15 13 13 14 14 14 13 10 13 16 18 18 20 19 18 18 17 18 17 21 18 22 23 23 24 26 28 29 26 28 25 28 29 31 32 30 35 41 21 25 35 31 29 31
33 24 9 6 8 10 10 11 10 10 13 12 16 14 13 16 16 14 15 17 18 19 20 20 23 22 18 24 24 24 27 24 28 34 24 30 25 29 28 31 25 22 26 25 26 29 29
Wind_Direction
314 315 317 319 323 324 324 326 324 320 319 320 319 318 313 312 314 313 323 313 314 300 285 284 281 282 305 347 18 232 292 342 22 39 29 40 38 40 30 23 14 10 3 1 359 348 355
312 313 316 320 322 323 323 323 321 319 320 323 321 319 317 315 308 301 296 318 330 307 301 297 298 307 334 346 343 318 342 8 0 19 25 32 43 40 31 19 9 10 356 350 349 347 355
316 315 315 318 319 321 322 324 322 320 321 321 319 316 313 312 312 307 296 293 330 318 316 311 312 332 338 347 340 341 0 16 15 25 36 38 41 33 30 27 20 5 354 0 348 360 359
311 312 313 316 320 323 325 325 324 323 320 318 315 314 312 311 308 309 307 294 324 355 338 323 324 334 331 341 344 347 360 14 14 23 36 34 30 23 10 16 357 357 347 343 340 359 353
311 315 315 314 318 321 320 319 320 320 318 316 316 314 310 306 304 304 308 342 355 354 349 334 328 329 326 337 351 354 2 12 22 24 28 35 30 10 358 349 347 338 344 339 337 341 343
306 310 312 315 317 319 320 320 320 320 318 317 316 312 309 309 308 311 326 3 359 358 345 345 338 325 326 330 339 346 356 4 12 20 23 19 14 3 353 350 353 351 345 337 331 334 332
306 309 313 316 317 316 319 319 319 319 319 318 317 315 311 313 315 328 355 359 335 329 333 325 319 321 324 330 340 343 351 3 8 8 11 8 7 10 1 354 348 345 342 335 332 331 324
300 305 310 312 317 319 316 317 318 319 319 318 319 319 319 319 329 344 2 356 354 351 336 339 336 331 333 334 340 341 352 2 5 8 11 6 2 12 15 5 353 344 337 329 327 323 319
9 319 313 314 317 320 320 318 319 321 322 320 320 321 322 322 353 2 5 5 2 348 346 342 345 340 336 339 344 342 349 358 2 2 1 360 3 7 360 352 342 337 329 327 323 326 322
14 3 338 323 319 321 324 326 323 322 323 325 324 322 323 327 4 2 1 3 11 10 343 349 353 345 342 346 344 348 349 351 350 351 353 349 352 349 345 337 336 327 332 328 325 322 315
345 346 346 342 328 318 318 322 324 325 324 322 324 324 327 346 5 357 8 10 19 9 333 354 353 359 354 351 348 343 350 348 342 341 342 342 343 340 335 334 336 330 336 330 324 318 316
322 329 335 340 338 326 319 315 314 317 319 321 320 323 339 353 359 5 6 6 5 343 336 352 351 350 347 343 340 336 342 345 346 339 339 336 343 341 339 344 342 342 334 330 325 320 311
298 309 317 325 331 336 329 321 317 316 319 320 325 337 352 358 350 0 3 356 338 344 344 344 344 343 339 336 337 337 337 336 337 333 334 337 336 340 341 332 337 336 331 322 318 316 313
285 294 306 317 325 326 328 328 325 321 321 322 332 351 355 357 353 355 355 337 331 339 337 338 339 342 335 335 337 337 337 336 340 337 330 326 324 336 341 336 332 330 328 321 316 314 314
275 282 292 306 319 327 324 323 324 325 324 325 346 350 349 344 348 353 340 331 329 333 337 338 335 329 331 333 330 329 329 330 335 339 330 328 326 338 338 336 335 330 321 325 316 314 311
273 276 282 292 304 314 321 320 319 318 321 327 339 343 343 347 348 346 335 326 330 333 333 332 327 328 322 325 325 326 327 336 333 337 335 328 320 328 330 333 332 324 328 319 319 315 313
272 273 276 286 297 303 311 314 316 317 319 328 330 325 338 341 351 337 323 324 327 332 334 330 325 321 323 322 322 321 322 329 330 332 335 331 323 323 327 323 320 322 317 317 317 312 312
277 274 278 282 289 299 306 313 314 315 318 320 319 312 332 340 329 330 324 326 331 329 332 325 326 323 321 325 323 323 321 325 335 333 325 327 322 318 320 325 326 322 320 319 313 315 314
274 276 276 281 278 293 304 311 314 313 316 315 309 312 330 329 315 320 323 321 322 322 322 325 323 325 328 323 322 322 324 329 329 326 326 327 321 318 319 324 328 324 324 320 319 317 309
284 274 270 271 276 283 295 303 308 311 315 315 311 307 318 322 322 319 320 317 317 325 321 323 322 324 322 319 320 321 320 325 329 327 327 325 317 312 310 315 321 318 318 318 315 312 311
284 284 270 267 270 275 283 291 301 306 311 317 309 308 315 312 315 315 315 317 317 317 322 324 323 319 321 318 318 316 319 321 325 325 324 321 315 316 315 315 316 315 314 314 310 310 310
287 287 272 266 266 269 276 284 293 300 304 305 301 305 313 311 313 313 314 314 315 318 320 318 317 324 320 317 318 319 321 321 319 321 321 322 317 321 317 319 318 314 316 314 313 313 313
289 287 284 264 261 264 268 282 290 296 303 302 308 315 309 309 309 311 312 314 317 320 323 323 323 322 319 319 324 327 325 324 323 322 320 321 320 321 316 322 321 316 322 322 324 325 323
295 287 286 262 256 258 263 270 281 282 295 307 312 313 305 301 302 306 312 314 313 314 314 322 325 322 329 343 338 332 330 328 327 326 324 320 320 319 317 322 316 328 335 333 328 326 328
297 291 287 264 254 256 260 268 268 278 285 301 305 306 304 302 304 306 309 311 316 318 318 320 325 333 342 333 325 322 322 322 325 325 325 330 324 321 320 320 321 322 328 330 330 327 330
296 291 287 270 255 258 264 263 272 277 282 293 299 305 305 304 304 315 311 312 312 314 318 323 336 337 332 326 322 317 315 319 322 324 337 333 331 323 323 319 320 331 337 341 336 325 339
296 291 285 276 255 258 263 272 271 275 278 293 301 304 306 305 314 318 311 312 320 319 319 322 325 326 324 322 318 316 315 322 319 320 323 326 326 316 317 320 325 333 337 344 328 329 336
296 291 288 264 245 250 266 274 279 277 278 292 301 307 306 305 315 320 322 318 319 318 316 323 325 320 319 316 318 317 317 322 324 328 328 324 324 324 327 323 323 343 339 330 334 337 337
301 304 297 236 237 248 266 281 271 284 280 295 300 309 323 315 318 333 333 327 322 321 318 317 319 323 329 320 321 325 322 328 325 321 331 325 329 329 328 329 338 341 336 340 341 339 341